Simultaneous Nadir Overpasses (SNOs) Predictions

Prediction of SNOs between LANDSAT-8 and NOAA-19 Satellite Orbit:

Table of predicted SNOs for the next 14.0 days since TLE Epoch: 9/11/2021
Index Date (LANDSAT-8) Time (LANDSAT-8) Lat,Lon (LANDSAT-8) SZA (LANDSAT-8 ) Date (NOAA-19) Time (NOAA-19) Lat,Lon (NOAA-19) SZA (NOAA-19 ) Distance(km) Time Diff (sec)
1 09/11/2021 22:52:55 -80.51, 49.18 102.14 09/11/2021 22:52:07 -80.52, 49.19 102.14 1.37 48
2 09/11/2021 23:42:21 80.52,-143.12 77.89 09/11/2021 23:43:08 80.51,-143.24 77.89 2.32 47
3 09/14/2021 05:16:06 -80.51, -46.60 101.25 09/14/2021 05:16:13 -80.51, -46.53 101.24 1.25 7
4 09/16/2021 10:49:50 80.51, 49.96 79.62 09/16/2021 10:49:23 80.52, 50.03 79.63 1.98 27
5 09/16/2021 11:39:17 -80.51,-142.40 100.37 09/16/2021 11:40:19 -80.50,-142.26 100.33 2.68 62
6 09/18/2021 16:23:34 -80.54, 146.79 99.46 09/18/2021 16:22:27 -80.53, 146.72 99.49 1.44 67
7 09/18/2021 17:13:01 80.51, -45.89 80.51 09/18/2021 17:13:30 80.52, -45.90 80.53 1.94 29
8 09/20/2021 22:46:45 -80.53, 50.94 98.57 09/20/2021 22:46:33 -80.52, 50.96 98.58 1.11 12
9 09/23/2021 04:20:28 80.55, 147.70 82.35 09/23/2021 04:19:44 80.53, 147.57 82.30 3.25 44



Historial Predications of SNOs between LANDSAT-8 and NOAA-19
